PALMA_DE_MALLORCA current weather conditions

sailwx.info

Wind from 040 at 7 knots

Air temperature 9.0° C
Visibility: greater than 5.4 NM
Dewpoint 3.0° C

Last reported at 2017-Jan-18 20:30 UTC.
Time now 2017-Jan-18 22:19 UTC

Location: N 39°33' E 002°44'.
View on Google Maps.

See reports from other nearby stations

  
Tides and Currents Weather Stations Pressure Air Temp Water Temp Dewpoint Dewpoint Depression Visibility Wind Speed Wind Dir Waves Ship Positions
date/time (UTC)wind fromknots sea level pressurealtimeterstation pressurevisibilityair tempwater tempwave heightnotes
2017-Jan-18 21:30 060 8 5.4 9.0
2017-Jan-18 21:00 050 9 5.4 9.0
2017-Jan-18 20:30 040 7 5.4 9.0
2017-Jan-18 20:00 050 8 5.4 9.0
2017-Jan-18 19:30 050 8 5.4 9.0
2017-Jan-18 19:00 050 6 5.4 8.0
2017-Jan-18 18:30 050 7 5.4 8.0
2017-Jan-18 18:00 050 12 5.4 8.0
2017-Jan-18 17:30 050 13 5.4 9.0
2017-Jan-18 17:00 050 13 5.4 9.0
2017-Jan-18 16:30 050 12 5.4 9.0
2017-Jan-18 16:00 050 13 5.410.0
2017-Jan-18 15:30 050 17 5.410.0
2017-Jan-18 15:00 040 17 5.410.0
2017-Jan-18 14:30 050 18 5.411.0
2017-Jan-18 14:00 040 14 5.410.0
2017-Jan-18 13:30 040 15 5.411.0
2017-Jan-18 13:00 050 13 5.410.0
2017-Jan-18 12:30 030 11 5.410.0
2017-Jan-18 12:00 030 9 5.4 9.0
2017-Jan-18 11:30 050 12 5.4 9.0
2017-Jan-18 11:00 040 9 5.4 9.0
2017-Jan-18 10:30 040 7 5.4 8.0
2017-Jan-18 10:00 040 8 5.4 8.0
2017-Jan-18 09:30 030 6 5.4 7.0
2017-Jan-18 09:00 5.4 6.0
2017-Jan-18 08:30 5.4 4.0
2017-Jan-18 08:00 060 0 5.4 4.0
2017-Jan-18 07:30 080 0 5.4 3.0
2017-Jan-18 07:00 050 2 5.4 3.0
2017-Jan-18 06:30 050 4 5.4 3.0
2017-Jan-18 06:00 040 6 gusting 15 5.4 5.0
2017-Jan-18 05:30 030 5 5.4 5.0
2017-Jan-18 05:00 040 6 5.4 5.0
2017-Jan-18 04:30 040 7 5.4 5.0
2017-Jan-18 04:00 040 9 5.4 5.0
2017-Jan-18 03:30 030 13 5.4 6.0
2017-Jan-18 03:00 040 12 5.4 5.0
2017-Jan-18 02:30 030 6 5.4 5.0
2017-Jan-18 02:00 020 7 5.4 5.0
2017-Jan-18 01:30 010 6 5.4 4.0
2017-Jan-18 01:00 350 6 5.4 4.0
2017-Jan-18 00:30 010 6 5.4 5.0
2017-Jan-18 00:00 010 6 5.4 3.0
2017-Jan-17 23:30 010 6 5.4 3.0
2017-Jan-17 23:00 020 6 5.4 1.0
2017-Jan-17 22:30 5.4 2.0
2017-Jan-17 22:00 5.4 2.0
2017-Jan-17 21:30 5.4 2.0
2017-Jan-17 21:00 5.4 2.0
2017-Jan-17 20:30 5.4 3.0
2017-Jan-17 20:00 360 2 gusting 13 5.4 3.0
2017-Jan-17 19:30 010 5 5.4 3.0
2017-Jan-17 19:00 020 5 5.4 4.0
2017-Jan-17 18:30 010 2 5.4 4.0
2017-Jan-17 18:00 360 2 5.4 3.0
2017-Jan-17 17:30 340 6 5.4 3.0
2017-Jan-17 17:00 5.4 2.0
2017-Jan-17 16:30 330 6 5.4 3.0
2017-Jan-17 16:00 340 8 5.4 3.0
2017-Jan-17 15:30 320 9 4.3 2.0
2017-Jan-17 14:30 340 7 4.3 2.0 Light rain.
2017-Jan-17 14:00 330 7 4.3 2.0 Light rain.
2017-Jan-17 13:30 020 7 4.3 4.0 Light rain.
2017-Jan-17 13:00 360 14 4.9 4.0 Showers in the vicinity.
2017-Jan-17 12:30 030 9 4.9 4.0 Showers in the vicinity.
2017-Jan-17 12:00 040 13 4.9 5.0 Showers in the vicinity.
2017-Jan-17 11:30 010 9 4.9 5.0 Showers in the vicinity.
2017-Jan-17 11:00 050 14 4.9 6.0 Showers in the vicinity.
2017-Jan-17 10:30 030 19 5.4 6.0 Showers in the vicinity.
2017-Jan-17 10:00 020 19 gusting 28 5.4 7.0
2017-Jan-17 09:30 030 17 gusting 27 5.4 7.0
2017-Jan-17 09:00 030 14 5.4 6.0
2017-Jan-17 08:30 040 12 5.4 6.0
2017-Jan-17 08:00 040 13 5.4 5.0
2017-Jan-17 07:30 030 11 5.4 6.0
2017-Jan-17 07:00 040 12 5.4 5.0
2017-Jan-17 06:30 030 12 5.4 5.0
2017-Jan-17 06:00 040 18 gusting 28 5.4 5.0
2017-Jan-17 05:30 030 9 5.4 6.0
2017-Jan-17 05:00 040 9 5.4 5.0
2017-Jan-17 04:30 030 13 gusting 28 5.4 5.0
2017-Jan-17 04:00 020 12 5.4 5.0
2017-Jan-17 03:30 050 12 5.4 5.0
2017-Jan-17 03:00 040 11 5.4 4.0
2017-Jan-17 02:30 030 13 5.4 5.0 Light rain.
2017-Jan-17 02:00 030 19 gusting 28 5.4 6.0
2017-Jan-17 01:30 040 17 5.4 6.0
2017-Jan-17 01:00 040 13 gusting 22 5.4 6.0
2017-Jan-17 00:30 050 11 5.4 6.0
2017-Jan-17 00:00 050 20 4.9 6.0 Light rain.
2017-Jan-16 23:30 050 13 4.9 7.0
2017-Jan-16 23:17 060 15 4.9 7.0
2017-Jan-16 23:00 050 15 2.2 8.0 Rain.
2017-Jan-16 22:30 050 13 gusting 24 4.9 9.0 Rain showers.
2017-Jan-16 22:00 060 7 5.4 9.0 Light rain.